| time (UTC) | temp C | wind direction | speed KPH | gust KPH | rain 1hr cm | rain 24hr cm | rain mn cm | humidity % | barometer mb |
| 20260508093009 | 2 | 259 | 0.0 | 0.0 | 0.00 | 0.00 | 0.00 | 99 | 1014.9 |
| 20260508092506 | 2 | 262 | 0.0 | 0.0 | 0.00 | 0.00 | 0.00 | 99 | 1014.7 |
| 20260508092006 | 3 | 268 | 0.0 | 0.0 | 0.00 | 0.00 | 0.00 | 99 | 1014.8 |
| 20260508091501 | 3 | 286 | 0.0 | 0.0 | 0.00 | 0.00 | 0.00 | 99 | 1014.8 |
| 20260508090958 | 3 | 287 | 0.0 | 0.0 | 0.00 | 0.00 | 0.00 | 99 | 1014.8 |
| 20260508090457 | 3 | 281 | 0.0 | 0.0 | 0.00 | 0.00 | 0.00 | 99 | 1014.8 |
| 20260508085953 | 3 | 267 | 0.0 | 0.0 | 0.00 | 0.00 | 0.00 | 99 | 1015.0 |
| 20260508085449 | 2 | 262 | 0.0 | 0.0 | 0.00 | 0.00 | 0.00 | 99 | 1014.9 |
| 20260508084947 | 2 | 274 | 0.0 | 0.0 | 0.00 | 0.00 | 0.00 | 99 | 1014.9 |
| 20260508084443 | 2 | 268 | 0.0 | 0.0 | 0.00 | 0.00 | 0.00 | 99 | 1015.2 |
| 20260508083941 | 3 | 280 | 0.0 | 0.0 | 0.00 | 0.00 | 0.00 | 99 | 1014.9 |
| 20260508083438 | 2 | 280 | 0.0 | 0.0 | 0.00 | 0.00 | 0.00 | 99 | 1015.0 |
| 20260508082938 | 2 | 289 | 0.0 | 0.0 | 0.00 | 0.00 | 0.00 | 99 | 1015.0 |
| 20260508082435 | 2 | 291 | 0.0 | 0.0 | 0.00 | 0.00 | 0.00 | 99 | 1014.8 |
| 20260508081933 | 2 | 288 | 0.0 | 0.0 | 0.00 | 0.00 | 0.00 | 99 | 1014.9 |
| 20260508081430 | 2 | 283 | 0.0 | 0.0 | 0.00 | 0.00 | 0.00 | 99 | 1014.9 |
| 20260508080926 | 2 | 305 | 0.0 | 0.0 | 0.00 | 0.00 | 0.00 | 99 | 1015.0 |
| 20260508080424 | 2 | 289 | 0.0 | 0.0 | 0.00 | 0.00 | 0.00 | 99 | 1014.9 |
| 20260508075921 | 2 | 287 | 0.0 | 0.0 | 0.00 | 0.00 | 0.00 | 99 | 1014.9 |
| 20260508075418 | 2 | 260 | 0.0 | 0.0 | 0.00 | 0.00 | 0.00 | 99 | 1015.0 |
| 20260508074916 | 3 | 258 | 0.0 | 0.0 | 0.00 | 0.00 | 0.00 | 99 | 1014.8 |
| 20260508074413 | 3 | 262 | 0.0 | 0.0 | 0.00 | 0.00 | 0.00 | 99 | 1014.8 |
| 20260508073909 | 3 | 259 | 0.0 | 0.0 | 0.00 | 0.00 | 0.00 | 99 | 1014.8 |
| 20260508073407 | 3 | 301 | 1.6 | 1.6 | 0.00 | 0.00 | 0.00 | 98 | 1014.5 |
| 20260508072904 | 3 | 231 | 0.0 | 0.0 | 0.00 | 0.00 | 0.00 | 98 | 1014.5 |
| 20260508072400 | 3 | 266 | 0.0 | 0.0 | 0.00 | 0.00 | 0.00 | 98 | 1014.7 |
| 20260508071857 | 3 | 278 | 0.0 | 0.0 | 0.00 | 0.00 | 0.00 | 98 | 1014.7 |
| 20260508071356 | 3 | 313 | 0.0 | 1.6 | 0.00 | 0.00 | 0.00 | 98 | 1014.8 |
| 20260508070853 | 3 | 304 | 0.0 | 1.6 | 0.00 | 0.00 | 0.00 | 98 | 1014.9 |
| 20260508070351 | 3 | 294 | 0.0 | 0.0 | 0.00 | 0.00 | 0.00 | 98 | 1014.8 |
| 20260508065848 | 3 | 295 | 0.0 | 0.0 | 0.00 | 0.00 | 0.00 | 97 | 1014.9 |
| 20260508065347 | 3 | 233 | 0.0 | 0.0 | 0.00 | 0.00 | 0.00 | 97 | 1014.8 |
| 20260508064844 | 3 | 273 | 0.0 | 0.0 | 0.00 | 0.00 | 0.00 | 97 | 1014.9 |
| 20260508064341 | 3 | 294 | 0.0 | 0.0 | 0.00 | 0.00 | 0.00 | 97 | 1014.7 |
| 20260508063839 | 3 | 264 | 0.0 | 0.0 | 0.00 | 0.00 | 0.00 | 97 | 1014.8 |
| 20260508063337 | 3 | 270 | 0.0 | 0.0 | 0.00 | 0.00 | 0.00 | 96 | 1014.8 |
| 20260508062833 | 3 | 265 | 0.0 | 0.0 | 0.00 | 0.00 | 0.00 | 96 | 1014.8 |
| 20260508062331 | 3 | 287 | 0.0 | 0.0 | 0.00 | 0.00 | 0.00 | 96 | 1015.0 |
| 20260508061828 | 3 | 269 | 0.0 | 0.0 | 0.00 | 0.00 | 0.00 | 96 | 1015.2 |
| 20260508061326 | 3 | 305 | 0.0 | 1.6 | 0.00 | 0.00 | 0.00 | 96 | 1014.9 |
| 20260508060822 | 3 | 291 | 0.0 | 0.0 | 0.00 | 0.00 | 0.00 | 95 | 1015.0 |
| 20260508060320 | 3 | 262 | 0.0 | 0.0 | 0.00 | 0.00 | 0.00 | 95 | 1015.2 |
| 20260508055814 | 3 | 268 | 0.0 | 0.0 | 0.00 | 0.00 | 0.00 | 95 | 1015.2 |
| 20260508055312 | 3 | 268 | 0.0 | 0.0 | 0.00 | 0.00 | 0.00 | 95 | 1015.0 |
| 20260508054808 | 3 | 292 | 0.0 | 0.0 | 0.00 | 0.00 | 0.00 | 95 | 1014.9 |
| 20260508054306 | 3 | 268 | 0.0 | 0.0 | 0.00 | 0.00 | 0.00 | 94 | 1015.3 |
| 20260508053802 | 4 | 268 | 0.0 | 0.0 | 0.00 | 0.00 | 0.00 | 94 | 1015.2 |
| 20260508053300 | 4 | 303 | 0.0 | 0.0 | 0.00 | 0.00 | 0.00 | 94 | 1015.4 |
| 20260508052757 | 4 | 249 | 0.0 | 0.0 | 0.00 | 0.00 | 0.00 | 93 | 1014.9 |
| 20260508052254 | 4 | 288 | 0.0 | 0.0 | 0.00 | 0.00 | 0.00 | 93 | 1015.0 |
| 20260508051750 | 4 | 316 | 1.6 | 1.6 | 0.00 | 0.00 | 0.00 | 93 | 1015.0 |
| 20260508051245 | 4 | 308 | 1.6 | 1.6 | 0.00 | 0.00 | 0.00 | 93 | 1015.2 |
| 20260508050743 | 4 | 315 | 1.6 | 1.6 | 0.00 | 0.00 | 0.00 | 92 | 1015.3 |
| 20260508050240 | 4 | 261 | 0.0 | 0.0 | 0.00 | 0.00 | 0.00 | 92 | 1015.3 |
| 20260508045735 | 5 | 249 | 0.0 | 0.0 | 0.00 | 0.00 | 0.00 | 92 | 1015.4 |
| 20260508045233 | 5 | 280 | 0.0 | 0.0 | 0.00 | 0.00 | 0.00 | 92 | 1015.3 |
| 20260508044731 | 5 | 261 | 0.0 | 0.0 | 0.00 | 0.00 | 0.00 | 91 | 1015.5 |
| 20260508044227 | 5 | 258 | 0.0 | 0.0 | 0.00 | 0.00 | 0.00 | 91 | 1015.2 |
| 20260508043723 | 5 | 255 | 0.0 | 0.0 | 0.00 | 0.00 | 0.00 | 90 | 1015.0 |
| 20260508043221 | 5 | 274 | 0.0 | 0.0 | 0.00 | 0.00 | 0.00 | 90 | 1015.3 |
| 20260508042717 | 5 | 328 | 1.6 | 1.6 | 0.00 | 0.00 | 0.00 | 90 | 1015.0 |
| 20260508042215 | 5 | 298 | 1.6 | 1.6 | 0.00 | 0.00 | 0.00 | 89 | 1015.2 |
| 20260508041711 | 5 | 265 | 0.0 | 0.0 | 0.00 | 0.00 | 0.00 | 89 | 1015.2 |
| 20260508041208 | 5 | 267 | 0.0 | 0.0 | 0.00 | 0.00 | 0.00 | 89 | 1015.2 |
| 20260508040704 | 5 | 264 | 0.0 | 0.0 | 0.00 | 0.00 | 0.00 | 89 | 1015.2 |
| 20260508040202 | 5 | 279 | 0.0 | 0.0 | 0.00 | 0.00 | 0.00 | 89 | 1015.2 |
| 20260508035659 | 5 | 262 | 0.0 | 0.0 | 0.00 | 0.00 | 0.00 | 88 | 1015.0 |
| 20260508035157 | 5 | 270 | 0.0 | 1.6 | 0.00 | 0.00 | 0.00 | 88 | 1015.0 |
| 20260508034653 | 5 | 270 | 0.0 | 0.0 | 0.00 | 0.00 | 0.00 | 87 | 1015.0 |
| 20260508034150 | 6 | 280 | 0.0 | 0.0 | 0.00 | 0.00 | 0.00 | 87 | 1014.9 |
| 20260508033647 | 6 | 265 | 0.0 | 0.0 | 0.00 | 0.00 | 0.00 | 86 | 1014.9 |
| 20260508033146 | 6 | 282 | 0.0 | 1.6 | 0.00 | 0.00 | 0.00 | 85 | 1014.7 |
| 20260508032642 | 6 | 268 | 0.0 | 0.0 | 0.00 | 0.00 | 0.00 | 85 | 1014.8 |
| 20260508032140 | 6 | 266 | 0.0 | 0.0 | 0.00 | 0.00 | 0.00 | 85 | 1015.0 |
| 20260508031636 | 6 | 285 | 0.0 | 1.6 | 0.00 | 0.00 | 0.00 | 85 | 1014.7 |
| 20260508031132 | 6 | 267 | 0.0 | 0.0 | 0.00 | 0.00 | 0.00 | 85 | 1015.0 |
| 20260508030629 | 6 | 264 | 0.0 | 0.0 | 0.00 | 0.00 | 0.00 | 85 | 1014.7 |
| 20260508030127 | 6 | 285 | 0.0 | 0.0 | 0.00 | 0.00 | 0.00 | 84 | 1014.9 |
| 20260508025623 | 6 | 331 | 1.6 | 1.6 | 0.00 | 0.00 | 0.00 | 83 | 1014.8 |
| 20260508025120 | 7 | 278 | 0.0 | 0.0 | 0.00 | 0.00 | 0.00 | 82 | 1014.9 |
| 20260508024616 | 7 | 287 | 0.0 | 1.6 | 0.00 | 0.00 | 0.00 | 81 | 1014.9 |
| 20260508024113 | 7 | 259 | 0.0 | 0.0 | 0.00 | 0.00 | 0.00 | 81 | 1014.8 |
| 20260508023609 | 7 | 271 | 0.0 | 0.0 | 0.00 | 0.00 | 0.00 | 81 | 1014.8 |
| 20260508023107 | 7 | 273 | 0.0 | 1.6 | 0.00 | 0.00 | 0.00 | 81 | 1014.8 |
| 20260508022602 | 7 | 244 | 0.0 | 0.0 | 0.00 | 0.00 | 0.00 | 80 | 1014.9 |
| 20260508022100 | 7 | 249 | 0.0 | 0.0 | 0.00 | 0.00 | 0.00 | 79 | 1014.7 |
| 20260508021555 | 7 | 353 | 1.6 | 1.6 | 0.00 | 0.00 | 0.00 | 78 | 1014.5 |
| 20260508021052 | 7 | 279 | 0.0 | 0.0 | 0.00 | 0.00 | 0.00 | 79 | 1014.6 |
| 20260508020549 | 7 | 301 | 0.0 | 1.6 | 0.00 | 0.00 | 0.00 | 79 | 1014.6 |
| 20260508020047 | 7 | 283 | 0.0 | 0.0 | 0.00 | 0.00 | 0.00 | 78 | 1014.4 |
| 20260508015544 | 8 | 277 | 0.0 | 0.0 | 0.00 | 0.00 | 0.00 | 77 | 1014.5 |
| 20260508015041 | 8 | 273 | 0.0 | 1.6 | 0.00 | 0.00 | 0.00 | 77 | 1014.3 |
| 20260508014537 | 8 | 305 | 0.0 | 1.6 | 0.00 | 0.00 | 0.00 | 77 | 1014.3 |
| 20260508014034 | 8 | 273 | 0.0 | 0.0 | 0.00 | 0.00 | 0.00 | 77 | 1014.2 |
| 20260508013530 | 8 | 280 | 0.0 | 0.0 | 0.00 | 0.00 | 0.00 | 75 | 1014.2 |
| 20260508013027 | 8 | 293 | 1.6 | 1.6 | 0.00 | 0.00 | 0.00 | 74 | 1014.0 |
| 20260508012524 | 9 | 270 | 0.0 | 0.0 | 0.00 | 0.00 | 0.00 | 74 | 1014.2 |
| 20260508012022 | 9 | 275 | 0.0 | 0.0 | 0.00 | 0.00 | 0.00 | 73 | 1014.0 |
| 20260508011520 | 9 | 303 | 1.6 | 1.6 | 0.00 | 0.00 | 0.00 | 72 | 1014.0 |
| 20260508011017 | 10 | 347 | 0.0 | 1.6 | 0.00 | 0.00 | 0.00 | 70 | 1013.9 |
| 20260508010514 | 10 | 353 | 1.6 | 1.6 | 0.00 | 0.00 | 0.00 | 68 | 1013.7 |
| 20260508010011 | 10 | 286 | 0.0 | 0.0 | 0.00 | 0.00 | 0.00 | 67 | 1013.9 |
| 20260508005508 | 11 | 324 | 1.6 | 1.6 | 0.00 | 0.00 | 0.00 | 65 | 1013.9 |
| 20260508005005 | 11 | 258 | 0.0 | 0.0 | 0.00 | 0.00 | 0.00 | 63 | 1014.0 |
| 20260508004500 | 11 | 321 | 1.6 | 1.6 | 0.00 | 0.00 | 0.00 | 59 | 1013.6 |
| 20260508003957 | 12 | 248 | 0.0 | 0.0 | 0.00 | 0.00 | 0.00 | 54 | 1013.5 |
| 20260508003454 | 12 | 247 | 0.0 | 0.0 | 0.00 | 0.00 | 0.00 | 53 | 1013.6 |
| 20260508002951 | 12 | 251 | 0.0 | 0.0 | 0.00 | 0.00 | 0.00 | 52 | 1013.5 |
| 20260508002447 | 13 | 248 | 0.0 | 0.0 | 0.00 | 0.00 | 0.00 | 52 | 1013.5 |
| 20260508001943 | 13 | 248 | 0.0 | 0.0 | 0.00 | 0.00 | 0.00 | 50 | 1013.5 |
| 20260508001440 | 13 | 265 | 0.0 | 1.6 | 0.00 | 0.00 | 0.00 | 50 | 1013.4 |
| 20260508000936 | 13 | 273 | 3.2 | 4.8 | 0.00 | 0.00 | 0.00 | 47 | 1013.4 |
| 20260508000434 | 13 | 337 | 4.8 | 4.8 | 0.00 | 0.00 | 0.00 | 47 | 1013.3 |
| 20260507235930 | 13 | 257 | 1.6 | 1.6 | 0.00 | 0.00 | 0.00 | 47 | 1013.2 |
| 20260507235426 | 14 | 262 | 1.6 | 3.2 | 0.00 | 0.00 | 0.00 | 47 | 1013.2 |
| 20260507234924 | 14 | 330 | 1.6 | 3.2 | 0.00 | 0.00 | 0.00 | 47 | 1013.1 |
| 20260507234420 | 14 | 307 | 3.2 | 3.2 | 0.00 | 0.00 | 0.00 | 46 | 1012.9 |
| 20260507233917 | 15 | 318 | 4.8 | 8.0 | 0.00 | 0.00 | 0.00 | 46 | 1012.9 |
| 20260507233414 | 15 | 284 | 4.8 | 4.8 | 0.00 | 0.00 | 0.00 | 45 | 1012.8 |
| 20260507232913 | 15 | 236 | 4.8 | 4.8 | 0.00 | 0.00 | 0.00 | 45 | 1012.9 |
| 20260507232408 | 15 | 100 | 6.4 | 9.7 | 0.00 | 0.00 | 0.00 | 44 | 1013.1 |
| 20260507231906 | 15 | 315 | 4.8 | 8.0 | 0.00 | 0.00 | 0.00 | 43 | 1013.0 |
| 20260507231402 | 15 | 237 | 8.0 | 11.3 | 0.00 | 0.00 | 0.00 | 43 | 1012.6 |
| 20260507230859 | 16 | 256 | 8.0 | 9.7 | 0.00 | 0.00 | 0.00 | 42 | 1012.6 |
| 20260507230356 | 16 | 273 | 1.6 | 3.2 | 0.00 | 0.00 | 0.00 | 42 | 1012.8 |
| 20260507225856 | 16 | 239 | 1.6 | 3.2 | 0.00 | 0.00 | 0.00 | 41 | 1012.8 |
| 20260507225352 | 16 | 329 | 6.4 | 8.0 | 0.00 | 0.00 | 0.00 | 39 | 1012.7 |
| 20260507224848 | 16 | 276 | 11.3 | 12.9 | 0.00 | 0.00 | 0.00 | 39 | 1012.7 |
| 20260507224345 | 16 | 290 | 9.7 | 12.9 | 0.00 | 0.00 | 0.00 | 38 | 1012.5 |
| 20260507223841 | 16 | 261 | 4.8 | 8.0 | 0.00 | 0.00 | 0.00 | 36 | 1012.7 |
| 20260507223338 | 17 | 267 | 11.3 | 14.5 | 0.00 | 0.00 | 0.00 | 36 | 1012.4 |
| 20260507222835 | 17 | 316 | 6.4 | 9.7 | 0.00 | 0.00 | 0.00 | 35 | 1012.3 |
| 20260507222331 | 17 | 253 | 3.2 | 8.0 | 0.00 | 0.00 | 0.00 | 37 | 1012.4 |
| 20260507221828 | 17 | 264 | 4.8 | 4.8 | 0.00 | 0.00 | 0.00 | 38 | 1012.1 |
| 20260507221325 | 17 | 215 | 4.8 | 4.8 | 0.00 | 0.00 | 0.00 | 36 | 1012.2 |
| 20260507220821 | 17 | 315 | 3.2 | 4.8 | 0.00 | 0.00 | 0.00 | 36 | 1012.3 |
| 20260507220320 | 17 | 276 | 8.0 | 11.3 | 0.00 | 0.00 | 0.00 | 38 | 1012.3 |
| 20260507215815 | 17 | 248 | 1.6 | 1.6 | 0.00 | 0.00 | 0.00 | 37 | 1012.2 |
| 20260507215313 | 16 | 282 | 11.3 | 12.9 | 0.00 | 0.00 | 0.00 | 38 | 1012.2 |
| 20260507214810 | 17 | 299 | 4.8 | 4.8 | 0.00 | 0.00 | 0.00 | 38 | 1012.1 |
| 20260507214307 | 17 | 271 | 12.9 | 22.5 | 0.00 | 0.00 | 0.00 | 37 | 1012.0 |
| 20260507213802 | 17 | 200 | 9.7 | 11.3 | 0.00 | 0.00 | 0.00 | 37 | 1012.0 |
| 20260507213259 | 17 | 319 | 4.8 | 8.0 | 0.00 | 0.00 | 0.00 | 38 | 1012.0 |
| 20260507212756 | 17 | 295 | 11.3 | 16.1 | 0.00 | 0.00 | 0.00 | 38 | 1011.7 |
| 20260507212252 | 17 | 264 | 12.9 | 14.5 | 0.00 | 0.00 | 0.00 | 37 | 1011.9 |
| 20260507211748 | 17 | 270 | 4.8 | 4.8 | 0.00 | 0.00 | 0.00 | 37 | 1011.8 |
| 20260507211245 | 17 | 242 | 6.4 | 9.7 | 0.00 | 0.00 | 0.00 | 35 | 1011.7 |
| 20260507210742 | 17 | 332 | 4.8 | 8.0 | 0.00 | 0.00 | 0.00 | 36 | 1011.8 |
| 20260507210239 | 17 | 273 | 12.9 | 17.7 | 0.00 | 0.00 | 0.00 | 36 | 1011.6 |
| 20260507205735 | 17 | 289 | 1.6 | 3.2 | 0.00 | 0.00 | 0.00 | 37 | 1011.6 |
| 20260507205232 | 17 | 258 | 6.4 | 8.0 | 0.00 | 0.00 | 0.00 | 36 | 1011.4 |
| 20260507204728 | 17 | 276 | 16.1 | 17.7 | 0.00 | 0.00 | 0.00 | 36 | 1011.5 |
| 20260507204227 | 17 | 230 | 8.0 | 9.7 | 0.00 | 0.00 | 0.00 | 36 | 1011.5 |
| 20260507203719 | 17 | 254 | 17.7 | 25.7 | 0.00 | 0.00 | 0.00 | 33 | 1011.5 |
| 20260507203216 | 17 | 339 | 16.1 | 20.9 | 0.00 | 0.00 | 0.00 | 35 | 1011.3 |
| 20260507202712 | 17 | 228 | 9.7 | 11.3 | 0.00 | 0.00 | 0.00 | 37 | 1011.5 |
| 20260507202208 | 17 | 322 | 4.8 | 8.0 | 0.00 | 0.00 | 0.00 | 40 | 1011.3 |
| 20260507201703 | 17 | 317 | 4.8 | 4.8 | 0.00 | 0.00 | 0.00 | 40 | 1011.4 |
| 20260507201200 | 17 | 331 | 9.7 | 12.9 | 0.00 | 0.00 | 0.00 | 41 | 1011.6 |
| 20260507200656 | 17 | 248 | 9.7 | 12.9 | 0.00 | 0.00 | 0.00 | 39 | 1011.7 |
| 20260507200153 | 17 | 260 | 3.2 | 3.2 | 0.00 | 0.00 | 0.00 | 39 | 1011.6 |
| 20260507195649 | 17 | 289 | 11.3 | 12.9 | 0.00 | 0.00 | 0.00 | 39 | 1011.6 |
| 20260507195146 | 17 | 285 | 6.4 | 8.0 | 0.00 | 0.00 | 0.00 | 39 | 1011.6 |
| 20260507194643 | 17 | 252 | 9.7 | 12.9 | 0.00 | 0.00 | 0.00 | 38 | 1011.7 |
| 20260507194139 | 17 | 251 | 17.7 | 20.9 | 0.00 | 0.00 | 0.00 | 39 | 1011.8 |
| 20260507193636 | 17 | 288 | 12.9 | 16.1 | 0.00 | 0.00 | 0.00 | 39 | 1011.9 |
| 20260507193133 | 17 | 249 | 4.8 | 4.8 | 0.00 | 0.00 | 0.00 | 41 | 1011.9 |
| 20260507192629 | 17 | 249 | 11.3 | 12.9 | 0.00 | 0.00 | 0.00 | 40 | 1011.9 |
| 20260507192126 | 17 | 194 | 1.6 | 1.6 | 0.00 | 0.00 | 0.00 | 40 | 1011.8 |
| 20260507191621 | 17 | 230 | 3.2 | 3.2 | 0.00 | 0.00 | 0.00 | 40 | 1012.0 |
| 20260507191119 | 17 | 277 | 8.0 | 12.9 | 0.00 | 0.00 | 0.00 | 41 | 1012.1 |
| 20260507190616 | 17 | 247 | 3.2 | 3.2 | 0.00 | 0.00 | 0.00 | 44 | 1012.1 |
| 20260507190115 | 17 | 255 | 9.7 | 12.9 | 0.00 | 0.00 | 0.00 | 42 | 1012.2 |
| 20260507185613 | 16 | 266 | 6.4 | 9.7 | 0.00 | 0.00 | 0.00 | 44 | 1012.6 |
| 20260507185109 | 16 | 242 | 3.2 | 8.0 | 0.00 | 0.00 | 0.00 | 45 | 1012.4 |
| 20260507184607 | 16 | 268 | 12.9 | 16.1 | 0.00 | 0.00 | 0.00 | 44 | 1012.2 |
| 20260507184105 | 17 | 273 | 11.3 | 17.7 | 0.00 | 0.00 | 0.00 | 43 | 1012.3 |
| 20260507183601 | 17 | 268 | 11.3 | 14.5 | 0.00 | 0.00 | 0.00 | 42 | 1012.1 |
| 20260507183058 | 17 | 253 | 14.5 | 20.9 | 0.00 | 0.00 | 0.00 | 41 | 1012.3 |
| 20260507182554 | 17 | 239 | 12.9 | 14.5 | 0.00 | 0.00 | 0.00 | 40 | 1012.1 |
| 20260507182050 | 17 | 233 | 6.4 | 12.9 | 0.00 | 0.00 | 0.00 | 41 | 1012.4 |
| 20260507181547 | 17 | 312 | 6.4 | 8.0 | 0.00 | 0.00 | 0.00 | 42 | 1012.2 |
| 20260507181043 | 17 | 307 | 1.6 | 3.2 | 0.00 | 0.00 | 0.00 | 44 | 1012.3 |
| 20260507180539 | 16 | 257 | 6.4 | 9.7 | 0.00 | 0.00 | 0.00 | 45 | 1012.2 |
| 20260507180037 | 16 | 251 | 4.8 | 8.0 | 0.00 | 0.00 | 0.00 | 43 | 1012.2 |
| 20260507175532 | 16 | 240 | 6.4 | 9.7 | 0.00 | 0.00 | 0.00 | 45 | 1012.1 |
| 20260507175031 | 16 | 274 | 12.9 | 14.5 | 0.00 | 0.00 | 0.00 | 43 | 1012.5 |
| 20260507174527 | 16 | 277 | 8.0 | 11.3 | 0.00 | 0.00 | 0.00 | 44 | 1012.6 |
| 20260507174025 | 16 | 236 | 8.0 | 11.3 | 0.00 | 0.00 | 0.00 | 45 | 1012.3 |
| 20260507173522 | 16 | 274 | 14.5 | 20.9 | 0.00 | 0.00 | 0.00 | 43 | 1012.6 |
| 20260507173019 | 16 | 241 | 6.4 | 8.0 | 0.00 | 0.00 | 0.00 | 45 | 1012.7 |
| 20260507172514 | 16 | 289 | 8.0 | 12.9 | 0.00 | 0.00 | 0.00 | 45 | 1012.7 |
| 20260507172011 | 16 | 273 | 14.5 | 16.1 | 0.00 | 0.00 | 0.00 | 45 | 1012.8 |
| 20260507171507 | 16 | 249 | 12.9 | 14.5 | 0.00 | 0.00 | 0.00 | 46 | 1012.7 |
| 20260507171005 | 15 | 244 | 9.7 | 12.9 | 0.00 | 0.00 | 0.00 | 47 | 1012.7 |
| 20260507170501 | 16 | 268 | 14.5 | 16.1 | 0.00 | 0.00 | 0.00 | 44 | 1012.9 |
| 20260507165957 | 15 | 272 | 6.4 | 9.7 | 0.00 | 0.00 | 0.00 | 47 | 1013.1 |
| 20260507165454 | 15 | 305 | 12.9 | 16.1 | 0.00 | 0.00 | 0.00 | 45 | 1013.2 |
| 20260507164950 | 16 | 258 | 9.7 | 12.9 | 0.00 | 0.00 | 0.00 | 46 | 1013.0 |
| 20260507164447 | 15 | 240 | 8.0 | 12.9 | 0.00 | 0.00 | 0.00 | 48 | 1013.1 |
| 20260507163944 | 15 | 236 | 12.9 | 12.9 | 0.00 | 0.00 | 0.00 | 47 | 1013.1 |
| 20260507163441 | 16 | 259 | 9.7 | 12.9 | 0.00 | 0.00 | 0.00 | 47 | 1013.2 |
| 20260507162938 | 15 | 275 | 3.2 | 4.8 | 0.00 | 0.00 | 0.00 | 50 | 1013.5 |
| 20260507162433 | 15 | 246 | 8.0 | 11.3 | 0.00 | 0.00 | 0.00 | 52 | 1013.2 |
| 20260507161930 | 15 | 252 | 9.7 | 11.3 | 0.00 | 0.00 | 0.00 | 50 | 1013.1 |
| 20260507161426 | 15 | 235 | 9.7 | 11.3 | 0.00 | 0.00 | 0.00 | 51 | 1013.4 |
| 20260507160923 | 16 | 247 | 4.8 | 4.8 | 0.00 | 0.00 | 0.00 | 47 | 1013.5 |
| 20260507160419 | 15 | 237 | 8.0 | 11.3 | 0.00 | 0.00 | 0.00 | 48 | 1013.5 |
| 20260507155915 | 15 | 298 | 4.8 | 4.8 | 0.00 | 0.00 | 0.00 | 50 | 1013.3 |
| 20260507155411 | 15 | 235 | 1.6 | 1.6 | 0.00 | 0.00 | 0.00 | 51 | 1013.4 |
| 20260507154908 | 15 | 254 | 9.7 | 11.3 | 0.00 | 0.00 | 0.00 | 52 | 1013.6 |
| 20260507154405 | 15 | 273 | 9.7 | 11.3 | 0.00 | 0.00 | 0.00 | 50 | 1013.5 |
| 20260507153903 | 15 | 248 | 11.3 | 14.5 | 0.00 | 0.00 | 0.00 | 51 | 1013.4 |
| 20260507153359 | 15 | 265 | 11.3 | 14.5 | 0.00 | 0.00 | 0.00 | 50 | 1013.4 |
| 20260507152855 | 15 | 244 | 4.8 | 4.8 | 0.00 | 0.00 | 0.00 | 51 | 1013.2 |
| 20260507152352 | 14 | 349 | 6.4 | 8.0 | 0.00 | 0.00 | 0.00 | 53 | 1013.5 |
| 20260507151848 | 13 | 252 | 3.2 | 4.8 | 0.00 | 0.00 | 0.00 | 52 | 1013.5 |
| 20260507151344 | 14 | 233 | 4.8 | 4.8 | 0.00 | 0.00 | 0.00 | 52 | 1013.4 |
| 20260507150841 | 14 | 248 | 14.5 | 16.1 | 0.00 | 0.00 | 0.00 | 53 | 1013.6 |
| 20260507150338 | 13 | 259 | 14.5 | 16.1 | 0.00 | 0.00 | 0.00 | 54 | 1013.6 |
| 20260507145834 | 13 | 248 | 8.0 | 11.3 | 0.00 | 0.00 | 0.00 | 55 | 1013.6 |
| 20260507145325 | 13 | 305 | 4.8 | 4.8 | 0.00 | 0.00 | 0.00 | 59 | 1013.7 |
| 20260507144822 | 14 | 227 | 1.6 | 1.6 | 0.00 | 0.00 | 0.00 | 57 | 1013.8 |
| 20260507144319 | 13 | 252 | 4.8 | 4.8 | 0.00 | 0.00 | 0.00 | 60 | 1013.8 |
| 20260507143815 | 13 | 253 | 4.8 | 9.7 | 0.00 | 0.00 | 0.00 | 62 | 1013.9 |
| 20260507143313 | 14 | 255 | 0.0 | 1.6 | 0.00 | 0.00 | 0.00 | 61 | 1013.9 |
| 20260507142809 | 13 | 260 | 6.4 | 8.0 | 0.00 | 0.00 | 0.00 | 59 | 1014.0 |
| 20260507142307 | 13 | 251 | 3.2 | 3.2 | 0.00 | 0.00 | 0.00 | 63 | 1014.1 |
| 20260507141802 | 13 | 266 | 4.8 | 4.8 | 0.00 | 0.00 | 0.00 | 66 | 1014.1 |
| 20260507141259 | 12 | 239 | 1.6 | 3.2 | 0.00 | 0.00 | 0.00 | 66 | 1013.9 |
| 20260507140755 | 13 | 270 | 4.8 | 8.0 | 0.00 | 0.00 | 0.00 | 65 | 1014.2 |
| 20260507140253 | 13 | 229 | 4.8 | 8.0 | 0.00 | 0.00 | 0.00 | 65 | 1014.2 |
| 20260507135750 | 13 | 236 | 8.0 | 11.3 | 0.00 | 0.00 | 0.00 | 66 | 1014.2 |
| 20260507135247 | 12 | 266 | 4.8 | 8.0 | 0.00 | 0.00 | 0.00 | 67 | 1014.3 |
| 20260507134743 | 12 | 239 | 4.8 | 4.8 | 0.00 | 0.00 | 0.00 | 67 | 1014.4 |
| 20260507134240 | 12 | 250 | 3.2 | 4.8 | 0.00 | 0.00 | 0.00 | 68 | 1014.4 |
| 20260507133735 | 12 | 220 | 1.6 | 1.6 | 0.00 | 0.00 | 0.00 | 67 | 1014.4 |
| 20260507133232 | 12 | 273 | 9.7 | 11.3 | 0.00 | 0.00 | 0.00 | 67 | 1014.5 |
| 20260507132730 | 12 | 297 | 1.6 | 3.2 | 0.00 | 0.00 | 0.00 | 69 | 1014.7 |
| 20260507132227 | 11 | 261 | 4.8 | 4.8 | 0.00 | 0.00 | 0.00 | 71 | 1014.5 |
| 20260507131723 | 11 | 280 | 4.8 | 8.0 | 0.00 | 0.00 | 0.00 | 74 | 1014.4 |
| 20260507131221 | 11 | 231 | 3.2 | 4.8 | 0.00 | 0.00 | 0.00 | 75 | 1014.7 |
| 20260507130717 | 11 | 233 | 3.2 | 3.2 | 0.00 | 0.00 | 0.00 | 76 | 1014.7 |
| 20260507130215 | 10 | 255 | 3.2 | 4.8 | 0.00 | 0.00 | 0.00 | 78 | 1014.7 |
| 20260507125713 | 10 | 250 | 1.6 | 1.6 | 0.00 | 0.00 | 0.00 | 79 | 1014.6 |
| 20260507125211 | 10 | 265 | 3.2 | 3.2 | 0.00 | 0.00 | 0.00 | 80 | 1014.7 |
| 20260507124707 | 10 | 251 | 4.8 | 4.8 | 0.00 | 0.00 | 0.00 | 78 | 1014.7 |
| 20260507124204 | 10 | 251 | 3.2 | 3.2 | 0.00 | 0.00 | 0.00 | 79 | 1015.0 |
| 20260507123703 | 10 | 249 | 4.8 | 4.8 | 0.00 | 0.00 | 0.00 | 81 | 1014.5 |
| 20260507123200 | 9 | 261 | 3.2 | 3.2 | 0.00 | 0.00 | 0.00 | 83 | 1014.6 |
| 20260507122655 | 9 | 238 | 4.8 | 4.8 | 0.00 | 0.00 | 0.00 | 85 | 1014.9 |
| 20260507122151 | 10 | 242 | 0.0 | 1.6 | 0.00 | 0.00 | 0.00 | 87 | 1014.7 |
| 20260507121647 | 9 | 240 | 0.0 | 0.0 | 0.00 | 0.00 | 0.00 | 89 | 1014.6 |
| 20260507121143 | 10 | 258 | 0.0 | 1.6 | 0.00 | 0.00 | 0.00 | 88 | 1014.6 |
| 20260507120640 | 10 | 228 | 0.0 | 0.0 | 0.00 | 0.00 | 0.00 | 87 | 1014.5 |
| 20260507120137 | 10 | 220 | 0.0 | 0.0 | 0.00 | 0.00 | 0.00 | 90 | 1014.4 |
| 20260507115633 | 9 | 219 | 0.0 | 0.0 | 0.00 | 0.00 | 0.00 | 92 | 1014.5 |
| 20260507115129 | 8 | 234 | 0.0 | 0.0 | 0.00 | 0.00 | 0.00 | 97 | 1014.6 |
| 20260507114624 | 7 | 233 | 0.0 | 0.0 | 0.00 | 0.00 | 0.00 | 99 | 1014.3 |
| 20260507114122 | 6 | 252 | 0.0 | 0.0 | 0.00 | 0.00 | 0.00 | 99 | 1014.8 |
| 20260507113620 | 6 | 257 | 0.0 | 0.0 | 0.00 | 0.00 | 0.00 | 99 | 1014.5 |
| 20260507113116 | 6 | 265 | 0.0 | 0.0 | 0.00 | 0.00 | 0.00 | 99 | 1014.5 |
| 20260507112614 | 5 | 292 | 0.0 | 0.0 | 0.00 | 0.00 | 0.00 | 99 | 1014.6 |
| 20260507112110 | 5 | 297 | 0.0 | 0.0 | 0.00 | 0.00 | 0.00 | 99 | 1014.4 |
| 20260507111608 | 5 | 325 | 0.0 | 0.0 | 0.00 | 0.00 | 0.00 | 99 | 1014.6 |
| 20260507111104 | 5 | 304 | 0.0 | 0.0 | 0.00 | 0.00 | 0.00 | 99 | 1014.4 |
| 20260507110601 | 5 | 291 | 0.0 | 0.0 | 0.00 | 0.00 | 0.00 | 99 | 1014.2 |
| 20260507110057 | 5 | 266 | 0.0 | 0.0 | 0.00 | 0.00 | 0.00 | 99 | 1014.3 |
| 20260507105553 | 5 | 268 | 0.0 | 0.0 | 0.00 | 0.00 | 0.00 | 99 | 1014.1 |
| 20260507105049 | 4 | 279 | 0.0 | 0.0 | 0.00 | 0.00 | 0.00 | 99 | 1014.2 |
| 20260507104547 | 4 | 280 | 0.0 | 0.0 | 0.00 | 0.00 | 0.00 | 99 | 1014.0 |
| 20260507104043 | 4 | 277 | 0.0 | 0.0 | 0.00 | 0.00 | 0.00 | 99 | 1013.9 |
| 20260507103539 | 4 | 272 | 0.0 | 0.0 | 0.00 | 0.00 | 0.00 | 99 | 1013.8 |
| 20260507103036 | 4 | 263 | 0.0 | 0.0 | 0.00 | 0.00 | 0.00 | 99 | 1014.0 |
| 20260507102533 | 4 | 267 | 0.0 | 0.0 | 0.00 | 0.00 | 0.00 | 99 | 1013.9 |
| 20260507102030 | 5 | 7 | 0.0 | 0.0 | 0.00 | 0.00 | 0.00 | 99 | 1013.8 |
| 20260507101525 | 5 | 322 | 0.0 | 0.0 | 0.00 | 0.00 | 0.00 | 99 | 1013.6 |
| 20260507101021 | 4 | 252 | 0.0 | 0.0 | 0.00 | 0.00 | 0.00 | 99 | 1013.8 |
| 20260507100519 | 4 | 248 | 0.0 | 0.0 | 0.00 | 0.00 | 0.00 | 99 | 1013.9 |
| 20260507100017 | 4 | 261 | 0.0 | 0.0 | 0.00 | 0.00 | 0.00 | 99 | 1013.7 |
| 20260507095514 | 5 | 270 | 0.0 | 0.0 | 0.00 | 0.00 | 0.00 | 99 | 1013.6 |
| 20260507095011 | 5 | 277 | 0.0 | 0.0 | 0.00 | 0.00 | 0.00 | 99 | 1013.6 |
| 20260507094507 | 5 | 284 | 0.0 | 0.0 | 0.00 | 0.00 | 0.00 | 99 | 1013.8 |
| 20260507094004 | 5 | 282 | 0.0 | 0.0 | 0.00 | 0.00 | 0.00 | 99 | 1013.5 |
| 20260507093501 | 5 | 271 | 0.0 | 0.0 | 0.00 | 0.00 | 0.00 | 98 | 1013.8 |